Theta_e
292 291 291 290 290 289 289 288 288 288 288 288 288 289 289 288 288 288 288 288 288 288 288 288 288 288 288 288 288 289 289 290 291 291 292 292 293 293 294 294 294 295 295 295 295 295 295 295 295 295 295 295 295 295 295 295 295 295 295 295 295 295 295 295 295 295 296 296 296 296 296 297 297 297 297 297 297 298 298 299 299 299 300 299 299 298
291 291 291 290 290 289 289 288 288 288 288 288 288 288 288 288 288 287 288 288 288 288 288 287 287 287 287 287 287 288 288 289 290 291 291 292 292 293 293 293 294 294 294 295 295 295 295 295 295 295 295 295 295 295 295 295 294 294 295 295 295 295 295 295 295 296 296 296 296 296 296 297 297 297 297 297 298 298 299 299 299 299 299 298 298 297
291 291 291 290 290 289 289 289 288 288 288 288 288 288 288 287 287 287 287 287 287 287 287 287 287 287 287 287 287 287 287 288 289 290 291 291 292 292 293 293 293 294 294 294 294 294 294 294 294 295 295 295 295 294 294 294 294 294 294 294 294 294 295 295 295 296 296 296 296 296 296 297 297 297 297 298 298 298 299 298 298 298 298 297 297 296
291 291 291 291 290 290 289 289 289 288 287 287 287 287 287 287 287 287 286 286 286 286 286 286 286 286 286 286 286 286 287 287 288 289 290 290 291 292 292 293 293 293 294 294 294 294 294 294 294 294 294 294 294 294 294 294 294 294 294 294 294 294 294 295 295 295 295 296 296 296 296 296 296 297 297 297 298 298 298 297 297 297 296 296 296 296
291 291 291 290 290 290 290 289 289 288 288 287 287 287 287 287 286 286 286 286 286 286 286 286 286 286 286 285 286 286 286 287 288 288 289 290 290 291 292 292 293 293 293 294 294 294 294 294 294 294 294 294 294 294 294 294 294 293 293 293 293 293 293 294 294 295 295 295 295 295 295 296 296 296 296 297 297 297 297 296 296 296 295 295 295 295
291 291 290 290 290 290 290 289 289 288 288 287 287 286 286 286 286 286 286 286 286 285 285 285 285 285 285 285 285 285 286 286 287 288 288 289 290 290 291 292 292 293 293 294 294 294 294 294 294 294 294 294 294 294 294 293 293 293 293 293 293 293 293 293 294 294 294 294 295 295 295 295 295 295 296 296 296 296 295 295 295 295 295 295 294 294
291 291 290 290 290 290 290 289 289 288 288 287 287 287 286 286 286 285 285 285 285 285 285 285 285 285 285 285 285 285 285 286 287 287 288 288 289 290 290 291 292 292 293 293 294 294 294 294 294 294 294 294 294 293 293 293 293 293 292 292 292 292 292 293 293 294 294 294 294 294 294 294 295 295 295 295 295 295 295 294 294 294 294 294 294 294
290 290 290 290 290 289 289 289 289 288 288 287 287 287 287 286 286 285 285 285 285 285 285 285 285 285 285 285 285 285 285 285 286 286 287 287 288 289 290 290 291 292 292 293 293 294 294 294 294 293 293 293 293 293 293 293 292 292 292 292 292 292 292 293 293 293 294 294 294 294 294 294 294 294 294 295 294 294 294 294 294 294 293 293 293 293
290 290 290 290 289 289 289 289 288 288 288 287 287 287 287 286 286 285 285 285 284 284 284 284 284 285 285 285 285 285 285 285 285 285 286 286 287 288 288 289 290 291 292 292 293 293 293 293 293 293 293 293 293 292 292 292 292 292 292 292 292 292 292 292 293 293 293 294 294 294 294 294 294 294 294 294 294 294 294 293 293 293 293 293 293 293
290 290 289 289 289 289 289 289 288 288 287 287 287 287 287 287 286 286 286 285 285 284 284 284 284 284 285 285 285 285 285 285 285 285 285 286 286 287 287 288 289 290 291 292 292 293 293 293 292 292 292 292 292 292 292 292 292 292 292 292 292 292 292 292 293 293 293 294 294 294 294 294 294 294 294 294 294 293 293 293 293 292 292 292 292 292
289 289 289 289 289 289 288 288 288 288 287 287 286 286 286 287 286 286 286 286 286 285 285 285 284 285 285 285 285 285 285 285 285 285 285 285 286 286 286 287 287 288 289 290 291 291 292 292 292 292 292 291 292 292 292 292 292 292 292 292 292 292 292 292 293 293 293 294 294 294 294 294 294 294 294 294 293 293 293 292 292 292 292 292 292 292
289 289 289 289 288 288 288 288 288 287 287 287 286 286 286 286 286 286 286 286 286 286 285 285 285 285 285 285 285 285 285 285 285 285 285 285 285 285 286 286 286 287 287 288 289 289 290 291 291 291 291 291 291 291 292 292 292 292 292 292 292 292 292 292 293 293 294 294 294 294 294 294 294 294 294 293 293 293 292 292 291 291 291 291 291 291
289 289 289 288 288 288 288 288 287 287 287 287 287 287 287 286 286 286 286 286 286 286 286 286 285 285 285 285 285 285 285 285 285 285 284 284 284 285 285 285 286 286 286 287 287 288 288 289 289 290 290 290 290 291 291 291 292 292 292 292 292 292 292 292 293 293 294 294 294 294 294 294 294 294 294 293 293 292 292 291 291 291 291 291 291 291
289 288 288 288 288 288 288 288 287 287 287 287 287 287 287 287 286 286 286 286 286 286 286 286 286 285 285 285 285 285 285 285 285 285 285 284 284 284 284 285 285 285 285 286 286 286 287 287 288 288 289 289 290 290 290 291 291 292 292 292 292 292 292 293 293 294 294 294 294 294 294 294 294 293 293 293 292 291 291 291 291 291 290 290 290 290
288 288 288 288 288 288 288 287 287 287 287 287 287 287 287 287 286 286 286 286 286 285 285 285 285 285 285 285 285 285 285 285 285 285 284 284 284 284 284 284 284 284 285 285 285 285 286 286 287 287 288 288 289 289 290 290 291 291 292 292 292 293 293 293 293 293 294 294 294 294 294 294 293 293 292 292 291 291 290 290 290 290 290 290 290 291
288 288 288 288 288 288 288 288 287 287 287 287 287 287 287 286 286 286 286 286 286 285 285 285 285 285 285 285 285 285 285 284 284 284 284 284 284 284 284 284 284 284 284 284 284 285 285 285 286 286 287 287 288 289 289 290 290 291 291 292 292 293 293 293 293 293 293 294 294 293 293 293 293 292 292 291 291 290 290 290 290 290 290 290 290 290
288 288 288 288 288 288 288 288 287 287 287 287 287 287 287 286 286 286 286 286 286 285 285 285 286 286 285 285 285 285 284 284 284 284 284 284 284 284 284 284 284 284 284 284 284 284 284 285 285 286 286 287 287 288 289 289 290 291 291 292 292 292 292 293 293 293 293 293 293 293 293 292 292 292 291 290 290 290 290 290 290 290 290 290 290 290
288 288 288 288 288 288 288 287 287 287 287 287 287 287 286 286 286 286 286 286 286 286 286 285 286 286 286 286 285 285 285 284 284 284 284 284 284 284 284 284 284 284 284 284 284 284 284 284 285 285 286 286 287 287 288 289 289 290 291 291 292 292 292 292 293 293 293 293 293 292 292 292 291 291 290 290 290 290 290 290 290 290 290 290 290 290
289 288 288 288 288 288 288 288 287 287 287 287 287 287 286 286 286 286 286 286 286 286 286 286 286 286 286 286 286 285 285 284 284 284 284 284 284 284 284 284 284 284 284 284 284 284 284 284 284 285 285 286 286 287 288 289 289 290 290 291 291 292 292 292 293 293 293 292 292 292 291 291 291 290 290 289 289 290 290 290 290 290 290 290 290 290
289 289 288 288 288 288 288 288 288 287 287 287 287 286 286 286 286 286 286 286 286 286 286 286 286 286 286 286 286 285 285 284 284 284 284 284 284 284 284 284 284 284 284 284 284 284 284 284 284 285 285 286 286 287 288 288 289 290 290 290 291 291 291 292 292 292 292 292 291 291 291 290 290 290 289 289 290 290 290 290 290 290 290 290 290 290
289 289 289 288 288 288 288 288 288 287 287 287 287 286 286 286 286 286 286 286 286 286 286 286 286 286 286 286 286 285 285 284 284 284 284 284 284 284 284 284 284 284 284 284 284 284 284 284 284 284 285 286 286 287 288 288 289 289 290 290 290 291 291 291 291 291 291 291 290 290 290 290 289 289 289 289 290 290 290 290 289 289 289 290 290 290
288 288 288 288 288 288 288 288 288 288 287 287 287 286 286 286 286 286 286 286 286 286 286 286 286 286 286 286 286 285 285 284 284 284 284 284 284 284 284 284 284 284 284 284 284 284 284 284 284 284 284 285 286 286 287 288 288 289 289 290 290 290 291 290 290 290 290 290 290 289 289 289 289 289 289 290 290 290 289 289 289 289 289 289 290 290
289 288 288 288 288 288 288 288 288 287 287 287 287 286 286 286 286 286 286 286 286 286 286 286 286 286 286 286 286 285 285 285 284 284 285 285 285 285 284 284 284 284 284 284 284 284 284 284 284 284 284 285 285 286 287 287 288 288 289 289 290 290 290 290 290 289 289 289 289 289 289 289 289 289 290 290 290 290 289 289 289 289 289 289 289 289
290 289 288 288 288 288 287 287 287 287 287 287 287 287 286 286 286 286 286 286 286 286 286 286 286 286 286 286 285 285 285 285 284 284 285 285 285 285 285 285 285 284 284 284 284 284 284 284 284 284 284 285 285 286 286 287 287 288 288 289 289 289 289 289 289 289 289 289 289 289 289 289 289 290 290 290 290 289 289 289 289 289 289 289 289 289
291 290 289 288 288 288 287 287 287 287 287 287 287 286 286 286 286 286 286 286 286 286 286 286 286 286 286 286 285 285 285 285 284 284 284 285 285 285 285 285 285 285 285 285 285 285 285 285 285 285 284 285 285 286 286 287 287 288 288 288 289 289 289 289 289 289 289 289 289 289 289 289 289 290 290 289 289 289 289 289 289 289 289 289 289 289
292 291 290 289 289 288 288 288 287 287 287 287 287 286 286 286 286 286 286 286 286 285 285 285 286 286 286 286 285 285 285 285 284 284 284 285 285 285 285 285 285 285 285 285 285 285 285 285 285 285 285 284 285 285 286 287 287 288 288 288 289 289 289 289 288 289 289 289 289 289 289 289 290 289 289 289 289 289 289 289 289 289 289 289 289 289
292 292 291 291 290 289 288 288 288 288 288 287 287 286 286 286 286 286 286 286 286 285 285 286 286 286 286 286 286 285 285 285 285 284 284 285 285 285 285 285 285 285 285 285 285 285 285 285 285 285 285 284 284 285 286 286 287 288 288 288 288 288 288 288 289 289 289 289 289 289 289 289 289 289 289 289 289 289 289 289 289 289 289 289 289 289
292 292 292 292 292 291 290 289 289 288 288 288 288 287 287 286 286 286 286 286 286 285 285 286 286 286 286 286 286 286 285 285 285 285 284 284 285 285 285 285 285 285 285 285 285 285 285 285 285 285 285 284 284 284 285 286 287 287 288 288 288 288 288 289 289 289 289 289 289 289 289 289 289 289 289 289 289 289 289 289 289 289 289 289 289 288
291 292 292 292 292 292 291 290 290 289 289 289 289 288 287 286 286 286 286 286 286 286 285 286 286 286 286 286 286 286 285 285 285 285 285 284 285 285 285 285 285 285 285 286 286 286 285 285 285 285 285 285 284 284 284 285 286 287 287 288 288 288 288 289 289 289 289 289 289 289 289 289 289 289 289 289 289 289 288 289 289 288 288 288 288 288
290 290 291 291 291 291 292 291 291 290 290 289 289 289 289 287 286 286 286 286 286 286 286 286 286 286 286 286 286 286 286 285 285 285 285 285 285 285 285 285 285 285 285 286 286 286 286 285 286 286 285 285 285 285 284 285 285 286 286 287 287 288 288 288 288 289 289 289 289 289 289 289 289 289 289 289 288 288 288 288 288 288 288 288 288 288
289 289 289 289 290 290 290 290 290 290 290 290 290 290 290 288 287 286 286 286 286 286 286 286 286 286 286 286 286 286 286 286 286 285 285 285 285 285 285 285 285 285 285 286 286 286 286 286 286 286 285 285 285 285 285 285 285 285 285 286 286 287 287 288 288 288 288 288 288 289 289 288 288 288 288 288 288 288 288 288 288 288 288 287 287 287
289 289 289 289 289 288 289 289 289 289 290 290 290 290 290 289 288 287 286 286 286 286 286 286 286 286 286 286 286 286 287 286 286 285 285 285 285 285 285 286 286 286 285 286 286 286 286 287 286 286 286 285 285 285 285 285 285 285 285 285 285 286 286 287 287 287 288 288 288 288 288 288 288 288 288 288 288 288 288 288 288 287 287 287 287 287
288 288 288 288 288 288 288 288 288 288 288 288 289 289 290 290 289 288 287 286 286 286 286 286 286 286 286 286 286 286 286 286 286 286 285 285 285 285 286 286 286 286 286 285 286 286 286 287 286 286 285 285 285 285 285 285 285 285 285 285 285 285 285 285 286 286 286 287 287 287 287 287 287 287 287 287 287 287 287 287 287 287 287 287 287 287
288 288 288 288 288 287 287 287 287 287 287 287 288 288 288 289 289 289 288 287 286 286 286 286 286 286 286 286 286 286 286 286 286 286 286 285 285 286 286 286 286 286 286 286 285 286 286 286 286 286 285 285 285 285 285 285 285 285 285 284 284 284 284 284 285 285 285 285 286 286 286 286 286 286 286 286 286 286 286 286 287 287 287 287 287 287
288 288 288 288 287 287 287 287 287 287 287 287 287 287 287 288 288 289 289 288 287 286 286 286 286 286 286 286 286 286 286 286 286 286 286 286 285 286 286 286 286 286 286 286 286 285 286 286 286 286 286 285 285 284 284 284 284 284 284 284 284 284 284 284 284 284 284 284 284 285 285 285 285 285 285 285 285 285 285 286 286 286 286 286 286 286
288 288 288 288 287 287 287 287 287 287 286 286 286 286 287 287 287 287 288 288 287 286 286 286 286 286 286 286 286 286 286 286 286 286 286 286 286 286 286 286 286 286 286 286 286 286 286 286 286 286 286 286 286 285 285 284 284 284 284 284 284 284 284 283 283 283 283 284 284 284 284 284 284 284 284 284 284 284 284 284 285 285 285 285 285 285
289 289 289 288 288 287 287 287 287 286 286 286 286 286 286 286 286 287 287 287 287 287 286 286 286 286 286 286 286 286 286 286 286 286 286 286 286 286 286 286 286 286 286 286 286 286 286 286 286 286 286 286 286 286 286 285 284 284 284 284 284 284 283 283 283 283 283 283 283 283 283 283 283 283 283 283 283 283 283 283 284 284 284 284 285 285
289 289 289 289 288 287 287 287 286 286 286 286 286 286 286 286 286 286 286 287 287 287 287 286 286 285 286 286 286 286 286 286 286 286 286 286 286 286 286 286 286 286 286 286 286 286 286 286 286 286 286 286 286 286 286 286 285 285 284 284 284 284 283 283 283 283 283 283 283 283 283 283 283 283 283 283 283 283 283 283 283 283 283 284 284 284
289 289 289 289 289 288 287 287 287 286 286 286 286 286 286 286 286 286 286 286 286 287 287 287 286 286 286 285 286 286 286 286 286 286 286 286 286 286 286 286 286 286 286 286 286 286 286 286 286 286 286 286 286 286 286 286 286 285 285 284 284 284 283 283 283 283 283 283 283 283 283 283 283 283 283 283 283 283 283 283 283 283 283 283 283 283
290 289 289 289 289 288 288 287 287 287 286 286 286 286 286 286 286 286 286 286 286 286 286 287 286 286 286 286 286 286 286 286 286 286 286 286 286 286 286 286 286 286 286 286 286 286 286 286 286 286 286 286 286 286 286 286 286 286 285 285 285 284 284 283 283 283 283 283 283 283 283 283 283 283 283 283 283 283 283 283 283 283 283 283 283 283
290 290 290 290 289 289 288 288 287 287 286 286 286 286 286 285 285 285 285 285 285 286 286 286 286 286 286 286 286 286 286 286 286 286 286 286 286 286 286 286 286 286 286 286 286 286 286 286 286 286 286 286 286 286 286 286 286 286 286 285 285 285 284 284 283 283 283 283 283 283 283 283 283 283 283 283 283 283 283 283 283 282 282 282 282 283
291 290 290 290 289 289 289 288 287 287 286 286 286 286 286 286 285 285 285 285 285 285 285 286 286 286 286 286 286 286 286 286 286 286 286 286 286 286 286 286 286 286 286 286 286 286 286 286 286 286 286 286 286 286 286 286 286 286 286 285 285 285 285 285 284 284 283 283 283 283 283 283 283 283 283 283 283 283 283 283 283 282 282 282 282 282
291 291 290 290 290 289 289 288 288 287 286 286 286 286 286 286 286 286 285 285 285 285 285 285 286 286 286 286 286 286 286 286 286 286 286 286 286 286 286 286 286 286 286 286 286 286 286 286 286 286 286 286 286 286 286 286 286 286 286 285 285 285 285 285 285 284 284 283 283 283 283 283 283 283 283 283 283 283 283 283 283 283 283 283 283 283
291 291 291 290 290 289 289 288 288 287 287 286 286 286 286 286 286 286 286 286 286 285 285 285 285 286 286 286 286 286 286 286 286 286 286 286 286 286 286 286 286 286 286 286 286 286 286 286 286 286 286 286 285 285 285 286 286 286 285 285 285 285 285 285 285 284 284 284 284 283 283 283 283 283 283 283 283 283 283 282 282 282 282 282 282 282
291 291 291 290 290 289 289 288 288 287 287 287 286 286 286 286 286 286 286 286 286 286 285 285 285 285 286 286 286 286 286 286 285 286 286 286 286 286 286 286 286 286 286 286 286 286 286 286 286 286 285 285 285 285 285 285 285 285 285 285 285 285 285 284 284 284 284 284 284 283 283 283 283 283 283 283 282 282 282 282 282 282 282 282 282 282
291 291 291 290 290 289 289 289 288 288 287 287 287 286 286 286 286 286 286 286 286 286 286 285 285 286 286 286 286 286 286 286 285 285 285 286 286 286 286 286 286 286 286 286 286 286 286 286 286 285 285 285 285 285 285 285 285 285 285 285 285 284 284 284 284 284 284 284 284 283 283 283 283 283 283 282 282 282 282 282 282 282 282 282 282 282
291 291 291 290 290 289 289 289 288 288 288 287 287 287 286 286 286 286 286 286 286 286 286 285 285 286 286 286 286 286 286 286 285 285 285 285 285 285 286 286 286 286 286 285 285 285 285 285 285 285 285 285 285 285 285 285 284 284 284 284 284 284 284 284 284 284 284 284 284 283 283 283 283 283 283 282 282 282 282 282 282 282 282 282 282 282
291 291 291 291 290 290 289 289 289 288 288 288 287 287 287 286 286 286 286 286 286 286 286 286 286 286 286 285 285 285 285 285 285 285 285 285 284 284 284 285 285 285 285 285 285 285 285 285 285 285 285 285 285 285 285 285 284 284 284 284 284 284 284 284 284 284 284 284 283 283 283 283 283 283 283 282 282 282 282 282 282 282 282 282 282 282
290 291 291 291 290 290 289 289 289 288 288 288 287 287 287 287 286 286 286 286 286 286 286 286 286 286 285 285 285 285 285 285 285 285 285 285 284 284 284 284 284 284 284 284 284 284 284 284 284 284 284 284 284 285 284 284 284 284 284 284 284 284 284 284 284 284 283 283 283 283 283 283 283 282 282 282 282 282 282 282 282 282 282 282 282 282
290 290 291 291 291 290 290 289 289 289 288 288 288 287 287 287 287 286 286 286 286 286 286 286 286 286 286 285 285 285 285 285 285 285 285 285 285 284 284 283 283 283 283 283 283 283 283 283 283 283 283 284 284 284 284 284 284 284 284 284 284 283 283 283 283 283 283 283 283 283 283 282 282 282 282 282 282 282 282 282 282 281 281 281 281 282
290 290 290 290 290 290 290 289 289 289 288 288 288 287 287 287 287 286 286 286 286 286 286 286 286 286 286 285 285 285 285 285 285 285 285 285 285 284 284 283 283 283 283 283 283 284 284 284 283 283 283 283 283 283 283 283 283 283 283 283 283 283 283 283 283 283 283 283 283 283 283 282 282 282 282 282 281 281 281 281 281 281 281 281 281 281
Wind_Speed
25 24 23 23 24 23 22 23 24 24 25 25 26 27 28 28 28 28 28 27 26 26 25 25 25 25 26 26 27 27 27 28 29 29 30 31 31 32 33 34 34 34 33 33 33 33 33 32 31 31 30 30 30 30 29 29 29 29 29 28 28 28 29 29 28 28 28 28 29 29 28 28 28 28 28 27 27 27 26 25 25 25 24 23 23 23
26 24 23 23 23 23 22 22 23 24 24 24 24 25 26 27 28 29 29 28 28 27 26 26 25 26 27 28 29 28 28 28 28 29 29 30 31 32 33 33 34 34 34 33 33 33 33 32 32 31 30 30 30 30 30 29 29 29 28 28 28 29 29 28 28 28 29 29 29 29 29 28 28 28 28 27 27 26 25 25 25 24 23 23 23 23
25 24 24 22 22 22 23 22 22 23 25 25 24 25 25 26 27 27 27 27 27 27 26 25 25 26 27 29 30 30 29 28 28 28 29 30 30 31 32 33 34 34 34 34 33 33 33 32 32 31 31 30 30 30 30 29 29 29 28 28 28 28 28 28 28 29 29 29 29 29 28 28 28 28 28 27 26 26 25 24 24 24 23 23 23 23
26 24 24 22 21 22 23 22 21 22 23 24 25 25 26 26 26 26 26 26 26 26 26 25 25 26 26 28 29 30 30 29 28 28 29 29 30 31 31 32 33 34 34 34 34 33 33 32 32 31 31 30 30 30 29 29 29 29 28 28 28 28 28 28 28 29 29 29 29 29 28 28 28 28 27 27 26 25 24 24 24 24 24 24 23 23
27 25 24 22 22 22 23 22 21 21 20 21 22 24 25 25 25 25 25 25 25 25 25 25 25 26 26 27 28 28 28 28 28 28 28 29 29 30 31 32 32 33 33 33 33 33 33 32 31 31 31 30 30 30 30 29 29 29 28 28 28 28 28 28 29 29 30 30 29 29 29 29 28 28 27 27 26 25 25 25 24 24 24 24 24 24
28 26 24 22 22 22 21 20 20 19 18 19 21 22 24 25 25 25 24 24 23 23 24 25 25 25 25 26 26 26 26 27 27 27 28 29 29 30 31 31 32 32 33 33 33 33 32 32 31 31 31 30 30 30 30 30 29 28 28 28 28 28 29 29 29 30 30 30 30 29 29 29 29 28 28 27 26 26 25 25 25 24 24 24 24 24
27 26 24 23 22 21 20 19 19 18 18 18 19 20 21 23 24 25 25 24 23 23 23 23 24 24 25 26 26 25 26 26 26 26 27 28 29 30 31 31 32 32 32 32 33 32 32 32 31 31 31 30 30 30 30 29 29 28 28 28 29 29 29 29 30 30 30 30 30 30 29 29 28 28 28 28 27 26 25 25 24 24 24 24 24 24
26 25 24 22 21 20 19 19 19 19 19 17 17 18 18 19 21 22 24 25 25 24 22 22 22 23 24 25 25 25 26 26 26 26 26 27 28 29 30 31 32 32 32 33 33 32 32 32 31 31 30 30 30 30 29 29 29 29 29 29 29 30 30 30 30 30 31 31 30 30 29 29 28 29 29 28 27 26 25 25 24 24 24 24 24 24
26 24 23 22 20 19 18 19 19 19 18 17 17 17 17 17 18 19 20 21 23 23 22 22 22 22 23 24 25 25 25 26 26 25 25 25 25 26 28 29 31 32 32 33 33 33 32 32 31 31 31 30 30 30 29 29 29 29 30 30 30 30 31 31 31 31 31 31 30 29 29 29 29 29 29 28 27 26 25 24 24 24 24 24 24 24
26 24 23 22 21 20 19 18 18 17 17 17 18 18 17 17 17 17 18 19 20 22 22 22 21 22 23 24 25 25 25 26 26 26 25 25 24 24 25 26 27 28 30 31 32 32 32 32 32 32 31 31 30 30 29 29 29 29 30 30 30 31 31 31 31 31 31 31 30 30 30 30 30 29 28 28 27 26 25 24 24 24 24 24 24 24
24 24 23 22 21 21 21 19 17 15 15 17 17 18 19 18 17 17 17 18 19 19 20 21 22 21 21 22 23 24 24 24 25 25 25 25 25 25 26 26 26 27 27 28 29 30 31 32 32 32 32 32 31 30 30 30 30 30 30 30 31 31 32 32 32 32 31 30 30 31 31 30 30 29 28 27 26 26 25 24 24 24 24 24 24 24
22 22 21 20 20 20 20 19 17 15 15 15 15 16 18 18 19 19 18 18 18 18 18 19 20 21 21 21 21 21 22 22 22 22 23 23 24 24 25 26 26 27 27 27 28 29 30 30 31 32 32 32 32 31 30 31 32 32 31 31 31 32 32 32 32 31 31 31 31 31 31 30 29 29 28 27 26 25 24 24 24 24 24 24 24 24
21 20 19 19 18 18 18 17 16 16 16 16 15 15 16 18 19 20 19 19 19 18 17 16 17 19 20 20 20 20 20 20 20 19 19 20 21 22 22 23 24 25 26 26 27 28 29 29 30 30 31 31 32 31 31 31 32 32 32 32 32 32 32 32 32 31 31 32 32 31 30 30 29 29 28 27 26 25 24 24 24 24 24 24 24 25
20 19 18 17 17 17 17 16 15 15 16 17 18 19 19 18 18 18 19 19 19 19 17 16 16 17 18 19 20 20 19 19 19 18 19 19 20 20 20 21 22 22 23 24 25 26 27 27 28 29 30 31 31 31 31 32 32 32 32 32 32 32 32 32 31 32 32 32 32 31 30 29 29 28 27 26 25 24 24 24 24 24 24 25 25 25
18 16 14 13 15 17 17 16 16 17 19 19 19 19 20 18 17 17 17 17 18 17 17 16 16 17 17 18 19 19 19 18 17 17 18 19 19 20 20 20 21 21 22 22 24 25 25 25 26 27 28 29 30 31 31 32 32 32 33 33 32 32 31 31 32 33 33 32 31 30 30 29 28 27 26 25 25 24 24 24 24 24 25 25 25 25
19 17 13 12 15 18 19 18 18 18 20 19 19 19 18 17 18 18 18 17 16 16 15 14 14 14 16 17 18 19 19 18 18 17 18 19 19 19 20 20 21 21 22 23 24 24 24 25 26 26 27 28 29 30 30 31 31 32 32 32 32 32 32 33 33 33 32 31 30 30 29 29 28 27 26 25 25 25 25 25 25 25 25 25 25 25
20 19 17 16 17 19 20 20 19 19 19 19 19 19 20 19 19 19 18 17 16 15 14 12 8 6 9 14 17 18 20 19 18 18 18 19 19 19 19 20 21 21 22 23 23 23 24 25 26 27 27 28 28 29 30 31 31 31 32 32 32 32 33 33 33 32 31 30 30 30 29 28 27 26 25 25 25 25 25 25 25 25 25 25 25 25
20 20 19 18 18 19 20 20 19 20 20 19 20 21 21 20 19 19 18 18 17 15 14 13 10 6 4 8 12 16 19 20 19 18 18 18 18 18 18 19 20 21 22 22 22 23 23 24 25 26 28 28 29 30 31 32 32 32 32 32 32 33 33 33 32 32 31 31 30 29 29 28 27 26 25 25 25 25 25 25 25 25 25 25 25 25
21 21 20 19 19 20 20 21 21 21 21 21 21 21 20 20 20 19 18 19 18 17 16 14 13 13 11 12 13 15 18 19 19 18 17 17 17 17 17 18 19 20 21 22 22 22 22 23 24 26 27 28 29 30 31 32 32 32 32 32 33 33 33 32 32 31 30 30 29 28 28 27 26 26 26 26 26 26 26 26 26 26 25 25 25 25
23 23 22 20 20 20 21 21 22 22 22 22 21 20 19 19 19 19 19 20 20 20 19 16 16 16 17 17 16 15 16 18 18 16 16 16 16 16 16 17 18 19 20 21 21 21 21 21 22 24 25 26 28 29 30 31 31 32 32 32 32 32 32 31 31 30 29 28 28 27 27 27 26 26 26 26 26 26 26 26 26 26 26 26 26 26
24 24 25 23 21 20 21 21 22 22 23 22 21 20 19 19 19 19 20 20 20 20 19 18 18 19 19 18 17 16 16 18 17 15 14 14 15 16 16 16 17 18 19 20 20 20 20 20 21 22 23 24 26 28 29 30 30 31 31 32 32 31 31 31 30 29 28 27 27 27 27 27 27 27 27 27 27 27 26 26 26 26 26 26 26 26
24 25 26 25 24 23 22 22 22 23 22 22 22 21 21 20 20 20 21 21 21 20 20 20 21 21 20 18 16 16 16 17 18 16 13 12 13 15 15 16 17 18 18 19 19 19 19 20 20 21 22 23 24 26 27 28 29 30 30 31 31 31 31 30 29 28 27 27 27 28 28 28 27 27 27 27 27 27 27 26 26 26 26 26 26 26
25 25 25 24 24 24 24 23 22 22 22 23 24 24 23 23 22 22 22 22 22 22 22 22 22 21 19 17 16 16 16 18 18 17 14 9 10 14 14 15 16 17 18 18 18 18 18 19 20 20 22 23 24 24 26 27 28 29 30 30 30 30 30 29 28 28 28 28 28 28 28 28 28 28 28 27 27 27 27 27 27 27 27 27 26 26
23 23 23 24 25 26 25 23 22 22 23 24 26 27 26 26 25 24 23 23 22 21 20 19 19 18 18 18 17 17 17 18 18 17 15 12 12 14 14 14 15 16 17 17 17 17 17 18 19 19 20 22 23 24 25 26 27 28 29 29 29 29 28 28 28 28 28 28 28 28 28 28 28 28 28 28 27 27 27 27 27 27 27 27 27 27
23 22 23 24 27 28 28 27 26 26 25 26 26 27 28 27 25 23 22 21 19 18 17 16 15 15 16 16 16 16 18 18 18 18 16 14 14 15 15 15 15 15 16 16 16 16 16 17 17 18 19 21 22 24 24 25 26 27 27 28 28 28 28 28 28 28 28 28 28 28 28 28 28 28 28 28 27 27 27 27 27 27 27 27 27 27
26 25 25 25 27 29 30 30 30 29 29 28 27 27 27 25 24 22 20 18 17 16 15 13 12 13 16 15 15 16 18 19 19 19 18 15 14 14 15 15 15 15 15 15 15 16 16 16 16 17 17 19 21 23 24 24 25 25 26 27 27 27 28 28 28 28 28 28 28 28 28 28 28 28 28 28 28 28 28 27 27 27 27 27 27 27
30 28 26 26 26 27 29 30 31 31 31 30 29 28 27 25 22 20 19 19 19 17 15 10 9 11 14 13 14 16 17 18 19 20 20 16 14 13 15 15 15 15 15 15 15 15 16 16 16 16 17 18 20 21 23 24 24 25 25 26 26 27 27 28 28 28 28 28 28 29 29 29 29 28 28 28 28 28 28 28 27 27 27 27 27 26
31 31 30 29 27 27 27 29 31 32 33 32 31 30 28 26 23 21 21 22 21 19 17 12 9 8 8 10 14 17 17 18 19 20 20 17 14 13 15 15 15 15 14 14 14 15 16 16 16 16 16 17 18 20 21 23 24 24 25 26 26 27 27 27 28 28 28 28 29 29 29 29 28 28 28 28 28 28 27 27 27 27 27 26 26 25
30 31 31 31 30 28 27 28 29 31 33 33 33 32 30 28 25 24 25 24 22 19 17 16 14 11 9 12 15 16 17 18 19 20 20 17 15 15 15 15 15 15 14 13 13 13 15 16 17 16 16 17 18 19 20 21 22 23 24 25 26 27 27 28 28 28 28 29 29 29 29 29 29 28 28 28 28 28 27 27 27 26 26 25 25 24
28 28 29 29 29 29 28 27 27 28 30 33 34 34 33 31 29 27 26 24 22 20 18 18 17 16 14 12 10 10 12 17 19 19 19 16 15 15 15 15 15 15 14 11 8 8 11 15 17 17 17 17 17 18 19 20 21 21 22 23 25 26 27 28 28 28 29 29 29 29 29 29 29 28 28 28 28 27 27 27 26 26 25 24 24 23
25 25 26 27 27 28 27 27 26 26 27 29 32 34 34 33 31 29 26 24 23 22 20 18 17 17 15 8 4 4 5 14 19 20 20 18 16 16 16 15 15 16 16 12 6 1 5 9 14 17 17 17 17 18 18 19 20 20 21 21 23 24 26 27 28 28 29 29 29 29 29 29 28 28 28 28 27 27 27 27 26 26 25 24 23 23
24 24 24 24 25 25 24 24 24 24 24 25 27 30 32 32 31 30 28 26 25 24 22 20 19 18 18 13 9 7 5 12 17 20 22 19 17 17 16 15 15 16 17 17 12 7 4 3 8 14 16 18 18 18 18 19 20 20 20 21 22 23 25 26 26 26 27 27 28 28 29 28 28 28 28 27 27 27 27 27 27 26 25 24 23 23
23 23 23 22 22 23 23 22 22 22 22 22 24 26 28 30 29 28 29 29 28 25 24 22 21 20 19 18 17 15 14 14 16 19 22 20 17 16 16 16 15 15 16 18 17 15 9 6 6 9 13 16 17 18 18 19 19 20 20 21 21 22 24 24 23 23 24 25 25 26 27 27 27 28 28 27 27 27 27 27 27 27 25 24 23 23
22 22 22 21 21 21 22 22 22 21 21 21 21 22 24 26 25 25 26 27 28 28 26 24 23 22 20 18 18 19 19 18 17 19 22 21 18 16 16 16 16 15 15 15 16 16 13 12 9 8 8 12 14 16 17 18 19 19 20 20 21 21 22 22 22 22 22 22 23 23 24 24 25 26 26 26 27 27 27 27 28 27 27 26 24 23
21 21 20 20 19 20 20 21 21 21 21 21 21 21 22 23 23 23 23 24 26 28 29 28 27 26 23 21 18 18 19 20 19 20 22 22 20 17 16 16 17 16 15 14 14 13 12 13 13 11 8 9 11 13 15 17 18 19 19 20 21 21 21 21 21 21 21 21 22 22 22 22 22 23 24 24 25 25 26 26 27 27 27 27 26 25
19 20 21 20 19 19 19 19 20 20 20 21 22 22 22 23 24 24 23 23 24 26 29 30 30 29 27 25 23 21 21 21 21 22 23 24 22 19 17 17 18 17 16 15 14 13 11 12 13 14 12 9 9 11 14 15 16 17 18 19 20 21 21 21 21 21 21 21 21 21 22 22 22 22 22 23 23 24 24 25 26 26 27 28 28 28
19 20 22 21 20 19 19 19 20 20 20 21 22 23 24 24 25 26 25 24 24 24 26 28 30 30 29 28 27 25 23 22 22 23 25 25 24 21 19 18 18 18 18 16 15 14 12 11 11 12 12 11 10 10 12 13 15 16 18 19 20 20 21 21 21 21 21 21 21 22 22 21 21 21 21 22 22 23 23 24 25 26 27 28 29 29
20 21 22 22 21 20 19 19 19 20 21 21 22 24 25 25 26 26 26 25 24 24 24 25 27 29 29 29 29 27 25 23 23 25 27 27 26 24 22 20 19 19 20 19 18 16 14 9 7 7 7 10 13 13 13 13 14 15 17 18 19 20 20 21 21 21 21 22 22 22 22 21 21 21 20 20 20 21 21 22 23 24 25 26 27 28
19 20 21 22 21 21 20 20 20 20 21 22 23 24 25 25 26 26 26 25 24 23 23 24 25 26 28 30 30 29 27 25 25 26 28 29 28 26 24 22 21 21 21 20 20 19 17 12 9 7 5 8 12 14 15 15 15 15 16 17 17 19 20 21 21 21 22 22 21 21 21 21 21 20 19 19 19 20 20 20 21 21 22 22 23 24
19 20 21 22 22 22 22 22 21 21 21 22 23 23 23 23 23 24 24 24 23 22 22 23 23 24 26 28 29 29 29 28 27 27 28 29 29 28 26 24 22 22 21 21 21 20 19 17 15 14 13 11 11 13 14 15 16 16 15 14 15 17 19 20 20 21 21 21 22 21 21 21 21 20 20 20 20 20 20 20 20 20 20 20 20 20
19 21 22 23 23 22 22 21 21 20 20 20 20 20 20 20 19 19 20 21 21 21 21 22 22 23 24 26 28 30 30 31 30 29 29 30 31 30 28 26 23 22 21 21 22 21 20 19 18 17 16 15 14 14 15 16 17 17 16 16 16 17 18 18 19 20 21 21 22 22 21 21 21 21 21 21 21 21 21 20 20 20 20 20 20 20
19 21 22 22 22 22 21 21 20 20 20 20 19 19 19 19 19 18 17 18 18 19 19 20 20 20 20 22 24 26 28 30 31 31 31 31 32 32 30 28 25 23 22 21 21 22 22 21 19 18 17 16 15 14 15 16 17 17 18 17 17 17 17 18 19 19 19 20 20 21 21 21 20 20 21 20 21 21 21 21 21 21 21 21 21 21
19 21 22 22 22 21 21 20 19 19 19 19 19 19 20 20 19 18 18 17 17 18 19 19 19 19 18 18 19 21 24 27 30 31 32 32 33 34 33 31 28 25 23 22 21 21 21 22 21 20 19 18 17 15 15 16 17 18 19 19 18 16 13 15 17 18 18 19 20 20 21 20 20 20 21 20 20 20 20 21 22 22 23 23 23 23
19 20 21 21 21 21 20 20 19 19 19 19 19 19 20 20 20 19 18 17 17 18 18 18 18 18 17 17 17 18 20 23 26 29 31 32 34 35 35 33 31 29 26 23 21 20 20 20 21 21 21 19 18 17 16 17 18 19 19 19 19 18 16 16 17 17 17 19 19 20 20 20 20 20 20 20 20 21 21 21 22 23 23 24 24 24
20 20 19 20 20 20 19 20 20 20 20 20 19 19 19 19 20 19 18 18 17 17 17 17 16 15 15 15 16 16 17 18 21 25 28 30 31 33 35 34 32 30 28 26 24 22 20 19 19 20 20 19 19 18 18 18 19 19 20 20 20 20 22 21 19 18 18 19 19 20 20 19 19 19 20 20 20 21 21 21 22 23 23 24 24 25
19 19 18 18 19 20 20 21 21 20 20 20 20 19 19 19 19 19 19 19 18 18 17 17 16 14 13 14 14 15 15 15 17 20 22 25 26 28 30 32 32 30 28 27 26 25 22 20 19 19 19 18 19 19 20 20 19 19 20 21 20 20 21 21 21 20 20 20 20 21 20 20 19 19 20 20 21 22 22 22 23 23 24 24 24 25
18 18 18 18 18 19 21 21 21 20 20 20 20 20 20 19 19 19 19 19 19 18 17 17 16 15 14 15 15 14 14 14 15 17 18 20 21 22 23 26 27 28 27 26 25 24 23 22 21 19 18 17 16 18 20 21 20 20 20 20 20 20 20 21 22 21 21 21 21 21 21 20 19 20 21 21 21 22 23 23 24 24 24 25 25 25
16 17 17 17 18 18 19 20 20 20 19 19 19 20 20 20 20 19 19 19 19 18 17 16 16 15 16 16 16 16 15 15 15 16 17 18 19 19 20 21 21 22 22 22 22 22 21 21 21 20 19 17 16 16 18 19 20 20 20 20 19 19 20 22 22 22 21 21 22 22 21 20 20 20 21 21 21 22 23 24 24 24 24 25 25 25
16 16 17 17 16 17 18 19 19 19 19 19 18 18 19 20 20 20 19 19 19 18 17 16 15 15 15 15 16 17 17 16 16 16 17 18 19 19 19 19 19 18 18 18 18 18 18 20 21 22 21 20 18 17 18 19 20 20 19 19 19 20 20 21 22 22 21 21 21 22 22 22 22 21 20 20 21 22 23 24 24 24 24 24 25 25
15 16 16 16 15 16 16 17 18 18 19 19 18 17 17 18 19 20 19 19 18 18 17 17 16 15 14 15 16 17 17 16 16 16 16 17 18 19 20 19 18 17 16 16 16 16 15 16 18 22 24 24 23 21 19 20 20 20 19 19 20 20 20 21 21 22 21 21 21 21 22 22 22 22 21 20 21 23 24 24 25 25 25 24 25 25
15 15 16 16 15 15 15 16 17 17 18 18 17 17 16 17 17 18 18 18 17 17 17 17 17 16 15 16 16 16 17 16 16 15 16 17 17 18 19 20 19 17 16 14 13 12 10 9 12 16 22 26 27 26 23 21 20 20 20 21 21 21 21 21 22 22 22 22 21 21 21 21 22 21 21 20 21 21 22 24 25 25 25 24 24 25
Wind_Direction
264 264 262 260 258 256 253 250 248 247 248 249 250 252 253 253 251 250 249 249 248 248 248 248 248 248 249 248 248 247 246 246 245 244 243 242 241 239 238 237 236 236 235 234 234 234 234 233 232 232 231 231 231 231 231 232 232 233 234 235 236 238 239 240 241 241 241 241 241 241 241 242 242 243 243 243 244 244 246 247 248 250 252 253 255 256
264 263 260 257 255 253 252 248 245 244 244 245 247 249 252 252 253 252 252 250 248 247 247 247 248 248 248 248 248 248 247 246 246 245 244 243 242 241 240 238 237 236 236 235 234 234 234 233 232 231 230 230 230 230 231 231 232 233 234 235 237 238 239 240 240 240 241 241 241 241 241 241 242 242 243 243 244 245 246 247 248 250 252 254 255 256
265 264 261 256 253 251 252 250 245 243 243 244 244 246 249 251 252 253 253 252 250 248 247 247 247 248 249 249 249 249 248 246 246 246 245 245 243 242 241 239 238 237 236 235 234 234 233 233 232 231 230 229 229 229 230 231 231 232 234 235 237 238 239 240 240 240 241 241 241 241 241 241 242 243 243 244 245 245 247 248 250 251 252 254 255 256
263 263 261 258 254 251 251 250 248 245 243 243 244 245 246 248 250 252 252 252 251 249 247 246 247 248 249 250 250 250 249 247 246 246 246 246 245 243 242 240 239 238 237 235 234 234 233 232 231 230 229 228 228 229 229 230 231 232 234 235 237 238 239 240 240 240 240 241 241 241 242 242 242 243 244 244 245 246 248 249 250 251 252 253 255 256
261 260 260 258 257 255 253 251 249 246 244 242 242 242 244 245 248 250 252 252 251 250 248 247 247 248 249 250 250 250 249 248 247 246 246 246 246 245 243 242 240 239 237 236 234 233 232 231 230 229 228 228 228 228 229 230 232 233 234 235 237 238 239 239 240 240 240 240 241 241 241 242 242 243 244 245 246 247 248 249 250 251 252 253 255 256
260 259 259 257 256 256 255 252 248 244 242 242 241 242 243 244 246 249 250 250 250 249 249 248 247 247 248 249 250 250 250 249 249 247 247 247 246 246 245 243 242 240 238 236 235 233 232 231 230 229 228 228 228 229 230 231 233 234 235 236 237 238 239 239 239 239 240 240 240 240 240 241 242 242 243 245 246 247 248 248 249 251 252 253 254 256
260 259 257 256 255 254 253 250 245 242 241 242 242 242 242 243 245 246 247 247 248 248 249 249 248 247 247 248 249 250 251 251 250 249 248 248 247 247 246 244 243 242 240 237 235 233 231 230 230 229 229 229 229 230 231 232 234 235 236 237 238 238 238 238 238 238 239 239 239 239 240 240 241 242 243 244 245 246 247 248 249 250 251 253 254 255
260 258 256 254 253 253 250 247 244 241 238 237 238 240 241 242 243 244 246 246 246 246 247 248 247 247 247 247 249 250 251 251 251 250 249 249 248 247 246 245 244 243 241 238 236 233 232 231 230 230 229 230 230 231 232 234 235 236 237 238 238 238 238 238 237 237 237 238 238 238 238 239 240 241 242 243 244 245 246 246 248 250 251 253 254 256
256 257 255 251 250 250 250 248 244 239 234 232 233 236 238 241 243 244 245 245 244 243 244 245 247 247 247 247 247 248 249 250 250 249 248 247 246 246 245 245 244 243 241 239 236 234 232 231 231 231 231 232 232 233 234 235 236 238 238 238 238 238 237 237 236 236 236 237 236 236 237 238 239 240 241 242 242 243 244 246 248 250 252 253 255 256
252 253 254 252 248 247 248 249 246 239 231 230 231 233 235 238 242 245 246 245 243 243 242 242 243 246 247 247 247 247 248 248 248 247 246 245 244 244 243 243 243 243 242 239 237 235 234 233 232 232 233 233 234 235 235 236 237 238 238 238 237 237 236 236 235 235 235 235 235 236 237 238 239 240 240 241 241 242 244 246 248 250 252 254 256 257
250 251 252 252 250 247 246 247 247 240 231 229 231 234 236 236 239 243 247 247 246 243 241 241 240 241 244 246 246 245 246 247 248 247 246 245 244 243 243 243 242 243 243 242 240 238 236 235 235 235 235 235 236 236 237 237 238 238 238 237 236 235 235 235 234 234 234 234 235 236 237 238 239 239 240 240 241 242 244 246 248 251 253 254 256 257
249 250 250 250 249 248 246 245 243 238 232 230 231 235 237 235 236 240 244 248 248 245 242 241 240 239 240 242 243 243 243 244 245 246 245 244 243 242 242 242 242 242 242 243 242 241 240 239 238 237 238 238 238 238 238 238 238 238 238 237 235 235 234 233 233 233 233 234 235 236 237 238 238 239 239 240 240 242 244 246 249 251 253 254 255 256
248 248 248 248 247 245 243 242 239 236 231 229 229 233 236 237 237 238 241 245 247 246 244 243 242 241 239 239 239 240 241 241 241 242 242 241 240 238 238 239 240 240 240 241 241 241 241 241 240 240 240 240 239 239 238 238 238 238 237 236 235 234 233 232 232 232 233 234 235 236 237 237 238 238 238 239 240 242 245 247 250 252 253 254 254 255
245 245 245 244 244 242 240 237 235 233 232 232 233 236 240 240 238 237 239 243 245 245 245 245 245 244 242 239 237 237 238 238 239 239 239 238 237 235 235 236 238 238 238 239 240 240 240 240 241 241 241 240 239 239 238 238 238 237 236 235 234 233 232 231 231 231 232 234 234 235 236 236 237 237 237 238 240 243 245 248 250 251 252 253 253 254
239 239 240 240 241 240 237 233 232 233 236 235 234 236 240 239 236 234 236 240 243 244 244 245 246 247 244 241 236 234 233 234 235 237 237 237 235 233 233 235 238 238 238 239 240 240 239 238 239 239 239 238 237 237 236 236 236 235 235 234 233 232 231 230 231 231 232 233 234 234 235 235 235 236 237 238 241 244 246 248 250 251 251 252 253 254
235 233 234 237 239 239 236 232 231 232 235 234 234 234 234 234 233 233 233 236 239 240 240 242 246 249 248 243 236 230 228 229 231 234 236 237 236 233 231 234 237 239 239 239 240 241 240 238 237 237 237 236 235 234 233 233 233 232 232 232 231 231 230 230 231 231 232 232 233 233 233 234 234 235 236 238 241 244 247 249 250 250 251 252 253 254
233 232 234 236 238 237 235 232 229 229 230 231 231 231 231 231 231 231 231 233 236 237 237 238 240 246 250 246 237 229 225 225 228 232 235 238 237 233 230 231 234 238 239 239 239 239 239 238 236 236 234 233 232 231 230 230 230 230 229 230 229 229 229 229 230 231 231 231 231 232 232 232 233 234 236 239 242 245 247 248 249 250 251 252 253 253
231 231 232 234 236 236 233 230 227 227 228 228 230 231 231 230 229 228 230 232 233 234 235 236 237 239 245 247 239 229 221 220 224 230 235 238 238 235 230 229 232 236 239 239 238 238 237 237 235 234 233 232 231 229 227 226 226 226 226 227 227 227 228 228 229 229 230 230 230 230 230 231 232 234 237 240 243 245 247 248 249 250 251 252 252 253
232 231 231 232 234 235 233 232 230 228 227 227 229 230 229 229 227 226 226 229 230 232 233 235 238 241 242 245 242 233 221 216 220 228 233 238 239 237 231 229 232 236 239 239 239 238 236 236 235 235 233 232 230 228 225 224 223 223 223 223 224 225 226 227 227 227 227 227 227 228 229 230 233 235 238 241 243 245 247 248 250 250 251 252 252 253
235 235 232 231 232 233 234 233 230 228 227 226 226 225 225 225 224 223 225 228 230 231 232 234 237 239 240 243 242 236 223 215 215 222 231 237 238 236 231 229 231 235 238 239 238 236 235 235 235 234 233 231 229 226 224 222 220 220 220 221 222 223 224 224 224 224 224 225 226 227 229 231 234 236 239 241 243 245 247 248 250 251 251 252 252 253
237 237 235 231 230 232 235 233 230 227 227 224 221 219 220 222 222 223 224 225 227 229 230 232 235 237 239 240 239 234 223 213 212 219 229 235 237 234 229 226 229 234 237 239 238 235 233 233 233 232 231 229 227 225 223 220 219 219 219 220 221 221 222 222 222 223 223 224 226 228 230 232 235 237 239 242 244 245 247 249 250 251 251 252 252 253
236 238 237 234 231 231 233 233 232 229 224 219 217 217 219 219 220 222 222 223 223 225 226 230 233 236 237 237 237 232 223 212 211 217 227 235 237 234 228 224 226 231 236 237 236 234 232 232 232 231 230 228 226 224 222 220 219 218 218 219 219 220 221 221 222 223 224 226 228 230 232 233 235 237 240 242 244 246 247 249 250 251 252 252 252 253
235 237 237 234 232 231 232 233 232 228 224 219 217 216 217 217 219 220 221 221 222 224 227 230 234 236 236 236 235 232 224 216 213 216 225 232 238 236 229 223 224 229 233 235 234 233 231 231 231 230 229 227 225 223 221 220 219 218 218 219 219 220 221 222 223 225 226 228 229 231 232 234 236 238 240 242 244 246 248 249 250 251 252 252 253 253
242 238 235 233 231 231 231 231 229 227 224 221 220 219 219 220 221 222 223 223 223 225 227 230 234 236 236 236 235 231 226 218 213 213 221 231 238 238 232 224 223 227 231 233 232 231 230 230 229 230 229 228 225 223 221 220 219 219 219 219 220 221 222 223 225 226 227 229 230 231 233 234 236 238 240 242 244 246 248 249 250 251 252 252 253 253
251 245 240 236 233 231 230 229 228 227 224 222 221 221 221 222 223 224 225 224 222 222 224 227 231 233 234 232 231 229 226 219 212 211 218 230 239 239 233 226 224 227 231 232 230 229 229 229 229 228 228 228 226 223 221 220 219 219 219 220 221 222 223 224 225 227 228 229 230 231 233 235 237 239 241 243 245 247 248 249 250 251 251 252 253 254
254 252 249 244 239 236 233 230 229 228 226 224 222 221 220 220 221 222 223 221 219 217 217 220 226 230 232 230 229 228 226 220 215 213 217 227 236 238 234 227 224 226 231 232 230 227 227 228 228 227 226 227 226 224 222 220 220 220 220 220 221 222 223 224 225 227 228 229 231 232 234 236 238 240 242 244 245 247 248 249 250 251 251 252 254 255
253 253 251 249 244 239 235 232 230 229 227 226 224 221 218 216 216 217 219 218 215 213 213 217 225 230 231 230 229 228 225 220 217 216 217 223 232 237 234 228 225 226 230 232 229 226 225 227 227 226 225 226 226 225 223 221 221 221 221 221 221 222 223 224 226 227 228 230 232 233 235 237 239 241 243 244 246 247 248 249 250 250 251 253 255 256
253 253 254 253 251 246 239 235 232 229 227 227 225 221 217 213 212 215 219 218 215 213 214 216 221 224 226 229 231 229 225 221 218 216 215 218 227 235 234 228 224 224 227 231 231 228 226 226 226 226 225 225 226 226 225 223 222 222 223 223 223 224 225 226 227 228 230 232 233 235 236 238 240 241 243 245 246 247 248 249 249 250 252 253 255 256
252 253 253 254 254 252 248 242 236 232 230 228 226 223 219 214 212 215 220 218 215 212 215 219 223 225 228 231 232 231 227 223 219 214 209 214 224 232 231 227 223 221 223 227 231 230 228 227 226 225 225 224 225 226 226 224 223 224 225 225 226 226 227 228 229 231 232 233 235 236 238 239 241 242 244 245 246 247 248 248 249 250 252 253 254 255
250 250 251 251 251 252 252 249 245 240 235 231 229 227 223 218 215 216 219 217 214 212 215 220 223 225 227 230 232 231 229 226 219 210 203 208 220 229 228 225 222 219 217 219 224 229 229 228 225 223 222 222 223 224 225 224 223 224 225 226 228 229 230 231 232 233 234 236 237 238 239 240 241 243 244 245 246 247 247 247 248 250 251 253 254 254
247 247 248 248 249 249 249 249 248 245 240 236 233 230 228 224 220 218 217 215 214 214 216 219 221 221 222 221 219 221 225 226 218 208 202 206 217 226 224 222 221 219 215 212 209 214 225 226 224 222 220 220 221 222 223 223 222 222 223 225 227 229 230 232 233 235 236 237 238 239 240 241 242 243 244 245 246 246 247 247 248 249 251 252 253 253
244 244 244 245 246 246 245 244 244 244 241 238 235 233 232 229 224 220 216 215 214 215 217 219 221 221 220 219 220 224 227 225 216 206 202 207 217 224 222 220 220 219 217 214 215 219 223 219 217 216 216 217 220 221 221 221 220 220 221 223 226 228 230 231 233 235 237 238 239 240 241 241 242 243 244 245 246 246 247 247 247 248 249 251 251 252
241 241 241 242 242 243 242 241 240 239 238 237 235 235 234 234 230 225 219 216 215 215 216 218 220 221 222 223 225 229 231 228 216 206 202 205 214 222 222 220 219 219 217 217 219 223 227 228 217 209 210 214 217 219 220 220 220 220 220 222 225 228 230 231 231 233 235 236 238 239 240 241 242 243 244 245 246 247 247 248 247 247 248 249 250 251
238 238 238 238 238 238 238 237 236 235 234 234 233 234 235 236 236 233 226 220 217 215 215 216 218 220 221 222 225 228 230 227 218 207 202 203 210 218 220 219 217 216 215 216 219 223 228 230 225 215 210 213 216 218 220 221 221 220 220 221 224 227 229 229 229 230 231 233 234 236 237 239 240 242 243 244 245 246 247 247 247 247 247 247 249 250
234 234 234 233 233 233 233 233 233 232 232 231 231 232 233 235 237 238 234 227 221 218 217 217 218 219 218 220 222 224 225 223 217 208 203 202 207 215 218 218 217 215 213 213 214 217 224 227 226 223 220 217 218 220 221 221 220 221 221 222 224 226 228 227 227 228 229 230 232 233 235 236 238 240 241 242 244 245 246 246 247 247 246 247 247 248
229 231 234 232 230 229 229 229 228 228 228 229 230 230 231 232 234 236 236 233 227 222 220 220 220 220 219 219 221 222 223 220 214 208 204 204 208 212 216 219 217 214 212 212 213 214 218 223 224 225 224 224 224 224 223 221 220 220 222 223 225 227 228 228 227 227 228 229 231 232 234 236 237 239 241 242 243 244 245 246 247 247 247 247 247 247
225 229 233 232 229 227 227 226 226 225 225 227 228 229 229 230 231 232 233 233 231 227 223 221 221 222 222 222 223 224 224 221 215 210 208 207 208 210 214 218 217 213 211 212 213 213 215 219 222 224 225 226 227 225 222 218 217 219 222 224 226 227 228 229 228 227 228 229 231 233 234 235 237 239 241 243 244 245 247 247 248 248 248 248 248 248
225 229 232 232 229 226 225 224 224 224 224 225 226 227 228 229 230 231 231 231 231 229 226 223 222 223 223 224 225 225 225 223 218 214 211 208 208 209 213 217 218 215 213 213 213 213 213 214 216 218 221 227 228 227 224 218 217 220 223 225 226 227 227 228 228 228 228 230 232 234 235 236 237 239 241 243 244 245 246 247 248 249 249 249 250 249
227 229 231 231 230 227 225 224 224 224 225 225 226 228 229 231 232 232 232 231 231 230 229 227 225 224 224 224 225 225 226 225 222 218 214 211 209 210 212 215 217 217 215 213 213 213 213 214 215 214 215 224 228 228 227 224 222 223 225 226 228 229 230 229 229 229 229 231 232 233 236 237 238 239 240 241 242 243 245 247 248 248 248 249 251 251
231 233 233 233 232 230 228 227 227 226 225 226 227 228 229 230 232 233 233 233 232 232 232 231 230 228 227 226 225 225 225 225 224 222 218 214 212 211 212 214 216 216 214 213 213 214 214 216 219 221 223 225 226 226 227 226 226 225 225 226 229 231 231 230 229 228 228 230 232 233 235 236 237 239 239 240 241 242 244 246 248 248 248 248 249 251
235 236 236 236 234 232 229 227 225 223 222 222 222 223 224 225 227 229 231 232 231 231 231 231 231 230 229 228 227 226 226 225 225 224 222 218 215 213 214 214 215 215 213 212 213 214 215 218 221 223 225 226 227 229 229 229 228 227 226 228 232 235 234 232 230 229 229 230 231 233 234 236 238 240 240 242 243 244 245 246 248 249 249 247 247 248
239 238 237 236 234 232 229 226 222 219 218 217 216 217 219 220 221 223 225 226 227 227 227 227 227 228 229 229 228 227 226 225 225 224 223 221 218 216 215 215 216 215 214 212 213 215 216 218 220 222 223 225 227 230 233 233 232 230 229 232 236 241 243 239 235 231 228 227 230 233 234 236 237 239 241 243 245 246 247 248 248 249 249 248 248 248
246 242 240 237 234 230 227 223 218 214 212 211 213 215 217 218 219 219 221 223 224 225 224 224 224 226 228 229 229 228 227 226 226 226 225 223 221 218 217 217 217 215 213 212 213 215 217 219 221 222 224 224 225 229 233 235 235 235 234 235 237 240 244 242 238 233 229 228 230 232 234 235 238 241 244 246 248 248 249 249 249 249 249 249 249 249
255 249 243 238 233 229 225 220 216 212 209 209 211 214 216 217 217 218 220 223 224 225 224 223 223 225 227 230 231 230 229 228 227 227 227 226 223 220 218 218 218 216 214 212 212 214 216 219 222 223 224 224 225 227 232 235 237 238 238 238 237 238 240 242 241 237 234 233 234 234 235 237 241 244 248 249 250 251 250 250 251 250 250 249 249 250
260 254 245 237 231 225 221 219 217 214 213 212 212 213 214 214 215 216 218 222 225 226 225 223 222 223 226 229 230 230 230 229 227 226 226 226 224 221 219 217 216 216 215 214 214 214 215 217 220 222 223 223 225 228 231 235 238 240 241 241 241 241 243 245 244 242 239 238 238 238 238 239 242 247 250 250 250 250 250 251 251 251 251 250 250 250
258 253 245 236 228 223 220 220 218 216 215 214 214 214 213 212 212 214 217 221 224 225 225 222 221 222 225 228 228 228 228 227 225 224 223 223 222 220 217 215 215 215 215 215 216 217 216 217 217 218 220 222 225 228 231 233 237 240 242 243 243 244 245 246 245 243 241 241 241 242 242 243 244 247 249 250 252 252 252 252 252 252 252 251 250 250
256 252 245 236 228 224 222 220 218 216 215 215 216 215 213 212 212 214 217 220 222 224 224 223 222 223 227 228 228 226 226 225 224 222 220 220 218 215 213 212 212 213 214 215 216 217 219 220 219 217 216 218 224 229 231 233 235 238 241 243 243 244 245 245 245 243 242 242 243 244 245 244 244 246 249 251 253 254 255 254 253 252 251 251 251 250
255 252 247 239 231 225 222 220 218 216 215 215 215 214 213 211 210 211 214 217 220 221 222 222 222 224 227 228 227 226 226 226 225 222 219 217 216 215 213 211 211 211 213 215 217 219 222 222 222 220 218 218 223 229 232 233 235 237 239 240 241 242 244 246 246 245 244 243 243 243 243 243 244 247 250 253 255 256 256 256 255 253 251 251 250 250
255 253 250 244 235 227 223 220 218 216 215 214 213 212 212 210 209 209 211 214 216 218 219 219 221 223 225 227 227 227 227 227 227 225 222 218 216 215 215 215 215 215 217 220 223 226 228 230 229 227 224 223 225 230 234 236 237 237 238 239 240 242 245 247 247 247 246 245 244 244 244 244 245 247 249 253 255 256 258 258 257 255 253 250 249 249
253 252 252 248 241 232 225 221 218 216 215 214 212 210 209 208 208 208 210 211 214 215 218 219 220 221 223 225 226 226 225 226 227 227 224 220 216 213 213 214 215 217 220 224 228 231 235 238 238 236 233 229 228 230 234 238 240 241 241 241 242 243 245 247 248 248 247 247 247 246 245 245 246 247 248 251 254 257 259 259 258 256 254 251 250 249
250 250 250 249 246 239 231 224 219 217 215 213 211 208 207 206 206 207 208 210 211 214 217 218 219 221 223 224 224 224 223 224 225 225 224 220 215 210 209 209 210 213 217 222 225 228 231 236 241 242 239 235 231 229 230 234 238 241 243 244 244 244 246 248 250 250 249 249 249 248 247 247 246 246 245 247 251 256 258 259 258 256 254 252 250 250